Regional Weather Roundup
Issued by NWS

Home | Current Version | Previous Version | Text Only | Print | Product List | Glossary On
Versions: 1 2 3 4 5 6 7 8 9 10 11 12 13 14 15 16 17 18 19 20 21 22 23 24 25 26 27 28 29 30 31 32 33 34 35 36 37 38 39 40 41 42 43 44 45 46 47 48 49 50
000
ASCA44 KEWX 281020
RWRMX

LATIN AMERICA AND CARIBBEAN REGIONAL WEATHER ROUNDUP
NATIONAL WEATHER SERVICE AUSTIN/SAN ANTONIO TX
500 AM CDT FRI APR 28 2017

NOTE: "FAIR" INDICATED FEW OR NO CLOUDS BELOW 12,000 FEET WITH NO
SIGNIFICANT WEATHER AND/OR OBSTRUCTIONS TO VISIBILITY.

BAJA CALIFORNIA

CITY           SKY/WX    TMP DP  RH WIND       PRES   REMARKS
S.J. DEL CABO    N/A    N/A N/A N/A MISG        N/A
TIJUANA        PTCLDY    57  52  82 CALM      29.78

NORTHWESTERN MEXICO

CITY           SKY/WX    TMP DP  RH WIND       PRES   REMARKS
DURANGO        CLEAR     54  41  62 S9        29.99
HERMOSILLO     MOCLDY    75  59  57 SE8       29.70

NORTHEASTERN MEXICO

CITY           SKY/WX    TMP DP  RH WIND       PRES   REMARKS
MONCLOVA         N/A    N/A N/A N/A MISG        N/A
MONTERREY      CLOUDY    72  68  88 E6        29.58F
NUEVO LAREDO   CLOUDY    73  70  88 S9        29.54
REYNOSA        PTCLDY    72  68  88 SE7       29.56
TORREON        CLEAR     81  45  28 S9        29.75
CD. VICTORIA     N/A    N/A N/A N/A MISG        N/A

WESTERN MEXICO

CITY           SKY/WX    TMP DP  RH WIND       PRES   REMARKS
AGUASCALIENTES CLEAR     54  16  22 SE5       30.09
COLIMA           N/A    N/A N/A N/A MISG        N/A
DEL BAJIO      CLEAR     55  32  41 CALM      30.15F
GUADALAJARA    CLEAR     57  23  26 W3        30.07
MAZATLAN       CLEAR     64  64 100 E3        29.87S
P. VALLARTA    PTCLDY    70  66  88 N3        29.86F
URUAPAN          N/A    N/A N/A N/A MISG        N/A
ZACATECAS      CLEAR     52  12  20 S13       30.10F

CENTRAL MEXICO

CITY           SKY/WX    TMP DP  RH WIND       PRES   REMARKS
CUERNAVACA       N/A    N/A N/A N/A MISG        N/A
MEXICO CITY    CLOUDY    63  36  36 S5        30.17F
MORELIA        PTCLDY    57  45  62 CALM      30.09
POZA RICA        N/A    N/A N/A N/A MISG        N/A
PUEBLA         PTCLDY    54  36  50 W3        30.18
QUERETARO      PTCLDY    61  39  44 W7        30.13F
S. LUIS POTOSI CLEAR     61   9  12 W9        30.03
TOLUCA         MOCLDY    52  39  62 CALM      30.27

SOUTHERN MEXICO

CITY           SKY/WX    TMP DP  RH WIND       PRES   REMARKS
ACAPULCO       PTCLDY    73  70  88 CALM      29.80F
B. DE HUATULCO   N/A    N/A N/A N/A MISG        N/A
P. ESCONDIDO     N/A    N/A N/A N/A MISG        N/A
VERACRUZ         N/A    N/A N/A N/A MISG        N/A

YUCATAN PENINSULA

CITY           SKY/WX    TMP DP  RH WIND       PRES   REMARKS
CAMPECHE         N/A    N/A N/A N/A MISG        N/A
CANCUN         MOCLDY    81  79  94 SE15      29.82R
CHETUMAL         N/A    N/A N/A N/A MISG        N/A
CD. DEL CARMEN   N/A    N/A N/A N/A MISG        N/A
COZUMEL        MOCLDY    81  77  89 SE13      29.79S
MERIDA         CLOUDY    81  73  78 E10       29.75F
MINATITLAN     CLEAR     79  70  73 CALM      29.68
TAPACHULA      CLEAR     75  73  94 CALM      29.79F

CENTRAL AMERICA

CITY           SKY/WX    TMP DP  RH WIND       PRES   REMARKS

CARIBBEAN

CITY           SKY/WX    TMP DP  RH WIND       PRES   REMARKS
ARUBA          PTCLDY    81  73  78 E18       29.86S
CURACAO        PTCLDY    81  73  78 E14       29.89S
KINGSTON       PTCLDY    81  73  78 N6        29.89S
NASSAU         PTCLDY    81  68  65 E6        30.03R
SAN JUAN       MOCLDY    79  75  89 E8        30.01R
SANTO DOMINGO  PTCLDY    73  72  94 NE5       29.97R
ST. CROIX      PTCLDY    79  73  83 E10       30.01R
ST. KITTS      LGT RAIN  75  73  94 N8        30.00
ST. MAARTEN    PTCLDY    79  73  83 E15       30.00S
ST. THOMAS     MOCLDY    77  72  83 E13       30.00R

$$




USA.gov is the U.S. government's official web portal to all federal, state and local government web resources and services.